This is the latest recevied weather packets stored in our database for station/object DF7ER-12. If no packets are shown the sender has not sent any weather packets the latest 10 day(s).
| Time | Temp. | Humidity | Pressure | Rain* | Wind** | Luminosity | Snow |
|---|---|---|---|---|---|---|---|
| 1777549899 | 18.33° C | 47% | 1021 hPa | - | - | - | - |
| 1777549599 | 19.44° C | 45% | 1021.1 hPa | - | - | - | - |
| 1777549299 | 18.89° C | 46% | 1021.1 hPa | - | - | - | - |
| 1777548999 | 18.89° C | 46% | 1021.1 hPa | - | - | - | - |
| 1777548700 | 20° C | 45% | 1021.2 hPa | - | - | - | - |
| 1777548400 | 20° C | 45% | 1021.2 hPa | - | - | - | - |
| 1777548100 | 19.44° C | 46% | 1021.3 hPa | - | - | - | - |
| 1777547799 | 19.44° C | 45% | 1021.2 hPa | - | - | - | - |
| 1777547499 | 18.89° C | 45% | 1021.4 hPa | - | - | - | - |
| 1777547200 | 19.44° C | 44% | 1021.5 hPa | - | - | - | - |
| 1777546899 | 20.56° C | 44% | 1021.5 hPa | - | - | - | - |
| 1777546600 | 20° C | 47% | 1021.4 hPa | - | - | - | - |
| 1777546299 | 17.78° C | 46% | 1021.4 hPa | - | - | - | - |
| 1777546000 | 17.78° C | 46% | 1021.5 hPa | - | - | - | - |
| 1777545700 | 18.89° C | 44% | 1021.6 hPa | - | - | - | - |
| 1777545399 | 19.44° C | 44% | 1021.6 hPa | - | - | - | - |
| 1777545099 | 20° C | 45% | 1021.7 hPa | - | - | - | - |
| 1777544800 | 18.89° C | 46% | 1021.6 hPa | - | - | - | - |
| 1777544500 | 18.33° C | 47% | 1021.7 hPa | - | - | - | - |
| 1777544199 | 17.78° C | 45% | 1021.8 hPa | - | - | - | - |
| 1777543899 | 17.22° C | 44% | 1021.8 hPa | - | - | - | - |
| 1777543600 | 18.89° C | 44% | 1021.8 hPa | - | - | - | - |
| 1777543299 | 18.33° C | 44% | 1021.9 hPa | - | - | - | - |
| 1777542999 | 18.33° C | 44% | 1021.9 hPa | - | - | - | - |
| 1777542699 | 17.78° C | 45% | 1021.8 hPa | - | - | - | - |
* Rain since midnight (hover to see other rain measurements)
** Current wind speed in m/s (hover to see current wind gust speed)